| time (UTC) | temp C | wind direction | speed KPH | gust KPH | rain 1hr cm | rain 24hr cm | rain mn cm | humidity % | barometer mb |
| 20260906035703 | 24 | 335 | 3.2 | 4.8 | 0.00 | 0.00 | 0.00 | 89 | 1010.9 |
| 20260906035159 | 23 | 295 | 0.0 | 0.0 | 0.00 | 0.00 | 0.00 | 90 | 1010.6 |
| 20260906034659 | 23 | 287 | 0.0 | 0.0 | 0.00 | 0.00 | 0.00 | 91 | 1010.6 |
| 20260906034153 | 23 | 287 | 0.0 | 0.0 | 0.00 | 0.00 | 0.00 | 91 | 1010.7 |
| 20260906033650 | 23 | 287 | 0.0 | 0.0 | 0.00 | 0.00 | 0.00 | 90 | 1010.7 |
| 20260906033149 | 23 | 287 | 0.0 | 0.0 | 0.00 | 0.00 | 0.00 | 90 | 1010.5 |
| 20260906032646 | 23 | 287 | 0.0 | 0.0 | 0.00 | 0.00 | 0.00 | 90 | 1010.6 |
| 20260906032146 | 23 | 287 | 0.0 | 0.0 | 0.00 | 0.00 | 0.00 | 90 | 1010.5 |
| 20260906031641 | 23 | 287 | 0.0 | 0.0 | 0.00 | 0.00 | 0.00 | 90 | 1010.3 |
| 20260906031137 | 24 | 287 | 0.0 | 0.0 | 0.00 | 0.00 | 0.00 | 89 | 1010.3 |
| 20260906030636 | 24 | 286 | 0.0 | 0.0 | 0.00 | 0.00 | 0.00 | 89 | 1010.4 |
| 20260906030131 | 24 | 285 | 0.0 | 0.0 | 0.00 | 0.00 | 0.00 | 88 | 1010.3 |
| 20260906025630 | 24 | 294 | 0.0 | 0.0 | 0.00 | 0.00 | 0.00 | 88 | 1010.3 |
| 20260906025130 | 24 | 294 | 0.0 | 0.0 | 0.00 | 0.00 | 0.00 | 87 | 1010.3 |
| 20260906024624 | 24 | 294 | 0.0 | 0.0 | 0.00 | 0.00 | 0.00 | 87 | 1010.1 |
| 20260906024119 | 25 | 293 | 0.0 | 0.0 | 0.00 | 0.00 | 0.00 | 86 | 1010.2 |
| 20260906023615 | 25 | 294 | 0.0 | 0.0 | 0.00 | 0.00 | 0.00 | 85 | 1010.1 |
| 20260906023109 | 25 | 302 | 0.0 | 0.0 | 0.00 | 0.00 | 0.00 | 85 | 1010.0 |
| 20260906022604 | 25 | 300 | 0.0 | 0.0 | 0.00 | 0.00 | 0.00 | 83 | 1010.0 |
| 20260906022100 | 25 | 299 | 0.0 | 0.0 | 0.00 | 0.00 | 0.00 | 82 | 1010.0 |
| 20260906021556 | 25 | 300 | 0.0 | 0.0 | 0.00 | 0.00 | 0.00 | 82 | 1009.7 |
| 20260906021054 | 25 | 301 | 0.0 | 1.6 | 0.00 | 0.00 | 0.00 | 81 | 1009.5 |
| 20260906020554 | 25 | 300 | 0.0 | 0.0 | 0.00 | 0.00 | 0.00 | 81 | 1009.4 |
| 20260906020054 | 25 | 298 | 1.6 | 1.6 | 0.00 | 0.00 | 0.00 | 79 | 1009.3 |
| 20260906015554 | 26 | 313 | 0.0 | 0.0 | 0.00 | 0.00 | 0.00 | 77 | 1009.2 |
| 20260906015053 | 26 | 314 | 0.0 | 0.0 | 0.00 | 0.00 | 0.00 | 76 | 1009.1 |
| 20260906014548 | 26 | 297 | 0.0 | 0.0 | 0.00 | 0.00 | 0.00 | 76 | 1009.1 |
| 20260906014044 | 26 | 293 | 1.6 | 3.2 | 0.00 | 0.00 | 0.00 | 75 | 1008.9 |
| 20260906013539 | 26 | 308 | 1.6 | 1.6 | 0.00 | 0.00 | 0.00 | 75 | 1008.8 |
| 20260906013035 | 26 | 309 | 0.0 | 0.0 | 0.00 | 0.00 | 0.00 | 74 | 1008.9 |
| 20260906012530 | 26 | 296 | 3.2 | 3.2 | 0.00 | 0.00 | 0.00 | 74 | 1009.1 |
| 20260906012029 | 26 | 297 | 1.6 | 1.6 | 0.00 | 0.00 | 0.00 | 73 | 1009.5 |
| 20260906011525 | 26 | 293 | 1.6 | 1.6 | 0.00 | 0.00 | 0.00 | 72 | 1009.5 |
| 20260906011025 | 26 | 311 | 0.0 | 1.6 | 0.00 | 0.00 | 0.00 | 70 | 1009.7 |
| 20260906010520 | 27 | 296 | 0.0 | 1.6 | 0.00 | 0.00 | 0.00 | 67 | 1009.9 |
| 20260906010017 | 27 | 321 | 0.0 | 0.0 | 0.00 | 0.00 | 0.00 | 65 | 1009.8 |
| 20260906005516 | 27 | 167 | 8.0 | 14.5 | 0.00 | 0.00 | 0.00 | 66 | 1010.1 |
| 20260906005015 | 28 | 35 | 6.4 | 9.7 | 0.00 | 0.00 | 0.00 | 62 | 1010.0 |
| 20260906004514 | 27 | 313 | 4.8 | 4.8 | 0.00 | 0.00 | 0.00 | 67 | 1009.8 |
| 20260906004010 | 28 | 7 | 3.2 | 4.8 | 0.00 | 0.00 | 0.00 | 67 | 1009.8 |
| 20260906003505 | 29 | 7 | 6.4 | 6.4 | 0.00 | 0.00 | 0.00 | 64 | 1009.8 |
| 20260906003001 | 30 | 44 | 6.4 | 6.4 | 0.00 | 0.00 | 0.00 | 67 | 1009.7 |
| 20260906002501 | 31 | 317 | 3.2 | 3.2 | 0.00 | 0.00 | 0.00 | 66 | 1009.5 |
| 20260906001956 | 30 | 321 | 1.6 | 1.6 | 0.00 | 0.00 | 0.00 | 65 | 1009.4 |
| 20260906001452 | 30 | 300 | 0.0 | 0.0 | 0.00 | 0.00 | 0.00 | 69 | 1009.4 |
| 20260906000946 | 30 | 314 | 0.0 | 1.6 | 0.00 | 0.00 | 0.00 | 67 | 1009.2 |
| 20260906000442 | 30 | 314 | 0.0 | 1.6 | 0.00 | 0.00 | 0.00 | 71 | 1009.2 |
| 20260905235942 | 31 | 313 | 0.0 | 0.0 | 0.00 | 0.00 | 0.00 | 70 | 1009.2 |
| 20260905235442 | 31 | 316 | 1.6 | 1.6 | 0.00 | 0.00 | 0.00 | 69 | 1009.3 |
| 20260905234937 | 32 | 315 | 0.0 | 0.0 | 0.00 | 0.00 | 0.00 | 64 | 1009.1 |
| 20260905234432 | 32 | 303 | 0.0 | 0.0 | 0.00 | 0.00 | 0.00 | 62 | 1008.9 |
| 20260905233926 | 32 | 280 | 1.6 | 3.2 | 0.00 | 0.00 | 0.00 | 59 | 1009.1 |
| 20260905233422 | 32 | 297 | 1.6 | 1.6 | 0.00 | 0.00 | 0.00 | 58 | 1009.2 |
| 20260905232921 | 33 | 297 | 0.0 | 0.0 | 0.00 | 0.00 | 0.00 | 57 | 1009.2 |
| 20260905232417 | 33 | 301 | 1.6 | 1.6 | 0.00 | 0.00 | 0.00 | 58 | 1009.1 |
| 20260905231912 | 34 | 300 | 1.6 | 1.6 | 0.00 | 0.00 | 0.00 | 53 | 1008.9 |
| 20260905231408 | 35 | 296 | 1.6 | 1.6 | 0.00 | 0.00 | 0.00 | 53 | 1008.9 |
| 20260905230905 | 35 | 293 | 0.0 | 1.6 | 0.00 | 0.00 | 0.00 | 52 | 1008.8 |
| 20260905230403 | 35 | 297 | 1.6 | 3.2 | 0.00 | 0.00 | 0.00 | 51 | 1009.0 |
| 20260905225901 | 35 | 294 | 1.6 | 1.6 | 0.00 | 0.00 | 0.00 | 52 | 1009.0 |
| 20260905225356 | 35 | 277 | 1.6 | 3.2 | 0.00 | 0.00 | 0.00 | 49 | 1008.9 |
| 20260905224852 | 36 | 284 | 4.8 | 4.8 | 0.00 | 0.00 | 0.00 | 49 | 1009.0 |
| 20260905224347 | 36 | 320 | 3.2 | 3.2 | 0.00 | 0.00 | 0.00 | 46 | 1009.0 |
| 20260905223841 | 36 | 306 | 3.2 | 3.2 | 0.00 | 0.00 | 0.00 | 46 | 1008.9 |
| 20260905223340 | 36 | 303 | 3.2 | 3.2 | 0.00 | 0.00 | 0.00 | 47 | 1009.2 |
| 20260905222840 | 36 | 309 | 0.0 | 0.0 | 0.00 | 0.00 | 0.00 | 46 | 1009.2 |
| 20260905222338 | 37 | 269 | 6.4 | 6.4 | 0.00 | 0.00 | 0.00 | 47 | 1009.0 |
| 20260905221835 | 37 | 303 | 1.6 | 1.6 | 0.00 | 0.00 | 0.00 | 45 | 1009.1 |
| 20260905221331 | 36 | 300 | 1.6 | 1.6 | 0.00 | 0.00 | 0.00 | 46 | 1009.0 |
| 20260905220827 | 36 | 278 | 4.8 | 4.8 | 0.00 | 0.00 | 0.00 | 46 | 1009.0 |
| 20260905220323 | 36 | 304 | 0.0 | 0.0 | 0.00 | 0.00 | 0.00 | 46 | 1009.1 |
| 20260905215822 | 36 | 316 | 3.2 | 3.2 | 0.00 | 0.00 | 0.00 | 46 | 1009.0 |
| 20260905215318 | 36 | 302 | 0.0 | 1.6 | 0.00 | 0.00 | 0.00 | 45 | 1009.2 |
| 20260905214814 | 37 | 333 | 4.8 | 6.4 | 0.00 | 0.00 | 0.00 | 44 | 1009.1 |
| 20260905214309 | 36 | 300 | 3.2 | 3.2 | 0.00 | 0.00 | 0.00 | 45 | 1009.1 |
| 20260905213804 | 36 | 278 | 3.2 | 3.2 | 0.00 | 0.00 | 0.00 | 47 | 1009.1 |
| 20260905213300 | 36 | 305 | 4.8 | 6.4 | 0.00 | 0.00 | 0.00 | 47 | 1009.3 |
| 20260905212755 | 37 | 302 | 1.6 | 3.2 | 0.00 | 0.00 | 0.00 | 45 | 1009.3 |
| 20260905212254 | 36 | 335 | 4.8 | 4.8 | 0.00 | 0.00 | 0.00 | 46 | 1009.5 |
| 20260905211749 | 36 | 253 | 6.4 | 6.4 | 0.00 | 0.00 | 0.00 | 48 | 1009.4 |
| 20260905211244 | 36 | 275 | 6.4 | 6.4 | 0.00 | 0.00 | 0.00 | 48 | 1009.2 |
| 20260905210741 | 37 | 290 | 3.2 | 3.2 | 0.00 | 0.00 | 0.00 | 46 | 1009.2 |
| 20260905210240 | 37 | 303 | 3.2 | 4.8 | 0.00 | 0.00 | 0.00 | 47 | 1009.3 |
| 20260905205739 | 36 | 267 | 3.2 | 4.8 | 0.00 | 0.00 | 0.00 | 47 | 1009.3 |
| 20260905205234 | 36 | 257 | 6.4 | 9.7 | 0.00 | 0.00 | 0.00 | 49 | 1009.4 |
| 20260905204734 | 36 | 298 | 4.8 | 9.7 | 0.00 | 0.00 | 0.00 | 47 | 1009.6 |
| 20260905204230 | 36 | 283 | 1.6 | 3.2 | 0.00 | 0.00 | 0.00 | 48 | 1009.5 |
| 20260905203729 | 36 | 292 | 0.0 | 1.6 | 0.00 | 0.00 | 0.00 | 49 | 1009.6 |
| 20260905203224 | 36 | 281 | 4.8 | 4.8 | 0.00 | 0.00 | 0.00 | 46 | 1009.8 |
| 20260905202720 | 36 | 302 | 4.8 | 6.4 | 0.00 | 0.00 | 0.00 | 48 | 1009.5 |
| 20260905202215 | 35 | 286 | 3.2 | 4.8 | 0.00 | 0.00 | 0.00 | 51 | 1009.7 |
| 20260905201711 | 36 | 275 | 9.7 | 12.9 | 0.00 | 0.00 | 0.00 | 50 | 1009.7 |
| 20260905201211 | 36 | 259 | 3.2 | 4.8 | 0.00 | 0.00 | 0.00 | 51 | 1009.8 |
| 20260905200706 | 37 | 269 | 4.8 | 4.8 | 0.00 | 0.00 | 0.00 | 46 | 1010.0 |
| 20260905200201 | 36 | 296 | 1.6 | 3.2 | 0.00 | 0.00 | 0.00 | 47 | 1010.1 |
| 20260905195700 | 37 | 273 | 1.6 | 3.2 | 0.00 | 0.00 | 0.00 | 46 | 1010.2 |
| 20260905195154 | 37 | 305 | 1.6 | 1.6 | 0.00 | 0.00 | 0.00 | 47 | 1010.5 |
| 20260905194650 | 36 | 273 | 3.2 | 3.2 | 0.00 | 0.00 | 0.00 | 47 | 1010.6 |
| 20260905194150 | 36 | 327 | 3.2 | 4.8 | 0.00 | 0.00 | 0.00 | 50 | 1010.5 |
| 20260905193649 | 36 | 21 | 6.4 | 9.7 | 0.00 | 0.00 | 0.00 | 49 | 1010.6 |
| 20260905193145 | 36 | 294 | 1.6 | 1.6 | 0.00 | 0.00 | 0.00 | 50 | 1010.5 |
| 20260905192640 | 36 | 283 | 3.2 | 3.2 | 0.00 | 0.00 | 0.00 | 50 | 1010.5 |
| 20260905192137 | 35 | 274 | 6.4 | 6.4 | 0.00 | 0.00 | 0.00 | 51 | 1010.5 |
| 20260905191636 | 36 | 290 | 3.2 | 4.8 | 0.00 | 0.00 | 0.00 | 51 | 1010.8 |
| 20260905191134 | 36 | 286 | 3.2 | 3.2 | 0.00 | 0.00 | 0.00 | 49 | 1011.0 |
| 20260905190633 | 36 | 319 | 1.6 | 3.2 | 0.00 | 0.00 | 0.00 | 49 | 1010.9 |
| 20260905190132 | 36 | 294 | 0.0 | 1.6 | 0.00 | 0.00 | 0.00 | 49 | 1010.9 |
| 20260905185631 | 36 | 293 | 1.6 | 3.2 | 0.00 | 0.00 | 0.00 | 48 | 1010.9 |
| 20260905185126 | 35 | 311 | 4.8 | 4.8 | 0.00 | 0.00 | 0.00 | 51 | 1011.2 |
| 20260905184620 | 35 | 299 | 6.4 | 9.7 | 0.00 | 0.00 | 0.00 | 50 | 1011.0 |
| 20260905184119 | 35 | 305 | 3.2 | 3.2 | 0.00 | 0.00 | 0.00 | 52 | 1011.1 |
| 20260905183618 | 36 | 293 | 4.8 | 6.4 | 0.00 | 0.00 | 0.00 | 50 | 1011.3 |
| 20260905183114 | 36 | 349 | 3.2 | 3.2 | 0.00 | 0.00 | 0.00 | 50 | 1011.3 |
| 20260905182614 | 35 | 306 | 1.6 | 1.6 | 0.00 | 0.00 | 0.00 | 55 | 1011.6 |
| 20260905182113 | 35 | 310 | 1.6 | 3.2 | 0.00 | 0.00 | 0.00 | 54 | 1011.6 |
| 20260905181608 | 35 | 253 | 3.2 | 4.8 | 0.00 | 0.00 | 0.00 | 51 | 1011.8 |
| 20260905181107 | 36 | 297 | 3.2 | 3.2 | 0.00 | 0.00 | 0.00 | 53 | 1011.7 |
| 20260905180602 | 36 | 291 | 0.0 | 1.6 | 0.00 | 0.00 | 0.00 | 51 | 1011.7 |
| 20260905180057 | 35 | 295 | 3.2 | 3.2 | 0.00 | 0.00 | 0.00 | 54 | 1011.8 |
| 20260905175556 | 35 | 302 | 3.2 | 3.2 | 0.00 | 0.00 | 0.00 | 54 | 1011.7 |
| 20260905175052 | 35 | 274 | 6.4 | 6.4 | 0.00 | 0.00 | 0.00 | 54 | 1011.9 |
| 20260905174548 | 35 | 289 | 3.2 | 4.8 | 0.00 | 0.00 | 0.00 | 55 | 1012.0 |
| 20260905174043 | 35 | 297 | 4.8 | 4.8 | 0.00 | 0.00 | 0.00 | 54 | 1011.9 |
| 20260905173540 | 34 | 293 | 1.6 | 1.6 | 0.00 | 0.00 | 0.00 | 57 | 1011.8 |
| 20260905173035 | 34 | 317 | 3.2 | 4.8 | 0.00 | 0.00 | 0.00 | 57 | 1012.1 |
| 20260905172533 | 34 | 305 | 4.8 | 6.4 | 0.00 | 0.00 | 0.00 | 58 | 1012.1 |
| 20260905172028 | 34 | 335 | 8.0 | 9.7 | 0.00 | 0.00 | 0.00 | 56 | 1011.9 |
| 20260905171525 | 34 | 303 | 4.8 | 6.4 | 0.00 | 0.00 | 0.00 | 60 | 1012.1 |
| 20260905171021 | 34 | 303 | 3.2 | 4.8 | 0.00 | 0.00 | 0.00 | 58 | 1011.9 |
| 20260905170517 | 35 | 296 | 1.6 | 3.2 | 0.00 | 0.00 | 0.00 | 59 | 1012.1 |
| 20260905170013 | 34 | 338 | 3.2 | 3.2 | 0.00 | 0.00 | 0.00 | 58 | 1012.1 |
| 20260905165513 | 33 | 322 | 4.8 | 4.8 | 0.00 | 0.00 | 0.00 | 58 | 1012.2 |
| 20260905165008 | 34 | 315 | 3.2 | 3.2 | 0.00 | 0.00 | 0.00 | 58 | 1012.3 |
| 20260905164508 | 33 | 302 | 1.6 | 1.6 | 0.00 | 0.00 | 0.00 | 60 | 1012.3 |
| 20260905164002 | 33 | 288 | 0.0 | 0.0 | 0.00 | 0.00 | 0.00 | 61 | 1012.6 |
| 20260905163459 | 33 | 267 | 3.2 | 3.2 | 0.00 | 0.00 | 0.00 | 59 | 1012.4 |
| 20260905162954 | 33 | 300 | 1.6 | 1.6 | 0.00 | 0.00 | 0.00 | 61 | 1012.6 |
| 20260905162450 | 33 | 294 | 4.8 | 6.4 | 0.00 | 0.00 | 0.00 | 61 | 1012.8 |
| 20260905161944 | 33 | 304 | 0.0 | 1.6 | 0.00 | 0.00 | 0.00 | 61 | 1012.8 |
| 20260905161444 | 33 | 301 | 0.0 | 1.6 | 0.00 | 0.00 | 0.00 | 63 | 1012.8 |
| 20260905160942 | 32 | 281 | 1.6 | 1.6 | 0.00 | 0.00 | 0.00 | 62 | 1012.9 |
| 20260905160436 | 32 | 336 | 1.6 | 3.2 | 0.00 | 0.00 | 0.00 | 63 | 1013.0 |
| 20260905155935 | 31 | 305 | 0.0 | 0.0 | 0.00 | 0.00 | 0.00 | 73 | 1013.2 |
| 20260905155430 | 31 | 302 | 0.0 | 0.0 | 0.00 | 0.00 | 0.00 | 71 | 1013.1 |
| 20260905154929 | 31 | 307 | 0.0 | 1.6 | 0.00 | 0.00 | 0.00 | 71 | 1013.2 |
| 20260905154425 | 30 | 309 | 0.0 | 0.0 | 0.00 | 0.00 | 0.00 | 73 | 1013.0 |
| 20260905153920 | 30 | 289 | 1.6 | 1.6 | 0.00 | 0.00 | 0.00 | 75 | 1013.0 |
| 20260905153417 | 30 | 306 | 1.6 | 1.6 | 0.00 | 0.00 | 0.00 | 74 | 1012.9 |
| 20260905152916 | 30 | 312 | 0.0 | 0.0 | 0.00 | 0.00 | 0.00 | 72 | 1012.8 |
| 20260905152415 | 29 | 291 | 0.0 | 0.0 | 0.00 | 0.00 | 0.00 | 75 | 1013.0 |
| 20260905151911 | 28 | 284 | 3.2 | 3.2 | 0.00 | 0.00 | 0.00 | 78 | 1013.1 |
| 20260905151407 | 28 | 271 | 4.8 | 4.8 | 0.00 | 0.00 | 0.00 | 77 | 1013.2 |
| 20260905150906 | 28 | 286 | 1.6 | 1.6 | 0.00 | 0.00 | 0.00 | 80 | 1013.2 |
| 20260905150407 | 28 | 284 | 3.2 | 3.2 | 0.00 | 0.00 | 0.00 | 81 | 1013.1 |
| 20260905145903 | 27 | 301 | 0.0 | 0.0 | 0.00 | 0.00 | 0.00 | 81 | 1013.1 |
| 20260905145358 | 27 | 301 | 0.0 | 1.6 | 0.00 | 0.00 | 0.00 | 81 | 1013.3 |
| 20260905144857 | 27 | 289 | 0.0 | 0.0 | 0.00 | 0.00 | 0.00 | 83 | 1013.3 |
| 20260905144353 | 27 | 289 | 1.6 | 1.6 | 0.00 | 0.00 | 0.00 | 84 | 1013.3 |
| 20260905143851 | 27 | 290 | 1.6 | 1.6 | 0.00 | 0.00 | 0.00 | 85 | 1013.2 |
| 20260905143346 | 27 | 297 | 0.0 | 1.6 | 0.00 | 0.00 | 0.00 | 85 | 1013.4 |
| 20260905142845 | 26 | 298 | 0.0 | 0.0 | 0.00 | 0.00 | 0.00 | 86 | 1013.3 |
| 20260905142344 | 26 | 292 | 3.2 | 3.2 | 0.00 | 0.00 | 0.00 | 86 | 1013.2 |
| 20260905141840 | 26 | 304 | 0.0 | 0.0 | 0.00 | 0.00 | 0.00 | 87 | 1012.9 |
| 20260905141335 | 26 | 296 | 0.0 | 0.0 | 0.00 | 0.00 | 0.00 | 86 | 1013.2 |
| 20260905140832 | 26 | 294 | 1.6 | 1.6 | 0.00 | 0.00 | 0.00 | 87 | 1013.2 |
| 20260905140331 | 26 | 296 | 0.0 | 0.0 | 0.00 | 0.00 | 0.00 | 87 | 1013.1 |
| 20260905135830 | 26 | 296 | 0.0 | 0.0 | 0.00 | 0.00 | 0.00 | 87 | 1013.1 |
| 20260905135326 | 26 | 296 | 0.0 | 0.0 | 0.00 | 0.00 | 0.00 | 87 | 1013.1 |
| 20260905134822 | 25 | 296 | 0.0 | 0.0 | 0.00 | 0.00 | 0.00 | 88 | 1013.1 |
| 20260905134321 | 25 | 296 | 0.0 | 0.0 | 0.00 | 0.00 | 0.00 | 88 | 1013.3 |
| 20260905133820 | 25 | 296 | 0.0 | 0.0 | 0.00 | 0.00 | 0.00 | 89 | 1013.2 |
| 20260905133316 | 25 | 296 | 0.0 | 0.0 | 0.00 | 0.00 | 0.00 | 90 | 1013.2 |
| 20260905132815 | 25 | 296 | 0.0 | 0.0 | 0.00 | 0.00 | 0.00 | 91 | 1013.2 |
| 20260905132311 | 25 | 296 | 0.0 | 0.0 | 0.00 | 0.00 | 0.00 | 91 | 1013.3 |
| 20260905131810 | 24 | 296 | 0.0 | 0.0 | 0.00 | 0.00 | 0.00 | 92 | 1013.3 |
| 20260905131306 | 24 | 296 | 0.0 | 0.0 | 0.00 | 0.00 | 0.00 | 93 | 1013.4 |
| 20260905130801 | 23 | 296 | 0.0 | 0.0 | 0.00 | 0.00 | 0.00 | 93 | 1013.5 |
| 20260905130300 | 23 | 302 | 0.0 | 1.6 | 0.00 | 0.00 | 0.00 | 95 | 1013.4 |
| 20260905125755 | 23 | 303 | 0.0 | 0.0 | 0.00 | 0.00 | 0.00 | 95 | 1013.4 |
| 20260905125250 | 23 | 303 | 0.0 | 0.0 | 0.00 | 0.00 | 0.00 | 96 | 1013.5 |
| 20260905124747 | 23 | 303 | 0.0 | 0.0 | 0.00 | 0.00 | 0.00 | 96 | 1013.4 |
| 20260905124242 | 23 | 303 | 0.0 | 0.0 | 0.00 | 0.00 | 0.00 | 97 | 1013.5 |
| 20260905123737 | 23 | 303 | 0.0 | 0.0 | 0.00 | 0.00 | 0.00 | 97 | 1013.4 |
| 20260905123235 | 23 | 303 | 0.0 | 0.0 | 0.00 | 0.00 | 0.00 | 97 | 1013.3 |
| 20260905122734 | 23 | 303 | 0.0 | 0.0 | 0.00 | 0.00 | 0.00 | 97 | 1013.2 |
| 20260905122228 | 22 | 303 | 0.0 | 0.0 | 0.00 | 0.00 | 0.00 | 97 | 1013.2 |
| 20260905121724 | 22 | 304 | 0.0 | 0.0 | 0.00 | 0.00 | 0.00 | 97 | 1013.0 |
| 20260905121220 | 22 | 304 | 0.0 | 0.0 | 0.00 | 0.00 | 0.00 | 97 | 1012.9 |
| 20260905120719 | 22 | 303 | 0.0 | 0.0 | 0.00 | 0.00 | 0.00 | 97 | 1013.2 |
| 20260905120214 | 22 | 303 | 0.0 | 0.0 | 0.00 | 0.00 | 0.00 | 97 | 1012.8 |
| 20260905115714 | 22 | 303 | 0.0 | 0.0 | 0.00 | 0.00 | 0.00 | 97 | 1013.1 |
| 20260905115208 | 21 | 303 | 0.0 | 0.0 | 0.00 | 0.00 | 0.00 | 97 | 1013.0 |
| 20260905114708 | 21 | 303 | 0.0 | 0.0 | 0.00 | 0.00 | 0.00 | 97 | 1012.9 |
| 20260905114206 | 21 | 303 | 0.0 | 0.0 | 0.00 | 0.00 | 0.00 | 97 | 1012.7 |
| 20260905113706 | 21 | 303 | 0.0 | 0.0 | 0.00 | 0.00 | 0.00 | 97 | 1012.7 |
| 20260905113203 | 21 | 303 | 0.0 | 0.0 | 0.00 | 0.00 | 0.00 | 97 | 1012.6 |
| 20260905112702 | 21 | 303 | 0.0 | 0.0 | 0.00 | 0.00 | 0.00 | 97 | 1012.4 |
| 20260905112158 | 21 | 304 | 0.0 | 0.0 | 0.00 | 0.00 | 0.00 | 97 | 1012.4 |
| 20260905111657 | 21 | 304 | 0.0 | 0.0 | 0.00 | 0.00 | 0.00 | 97 | 1012.6 |
| 20260905111157 | 21 | 303 | 0.0 | 0.0 | 0.00 | 0.00 | 0.00 | 97 | 1012.4 |
| 20260905110656 | 21 | 304 | 0.0 | 0.0 | 0.00 | 0.00 | 0.00 | 97 | 1012.4 |
| 20260905110151 | 21 | 304 | 0.0 | 0.0 | 0.00 | 0.00 | 0.00 | 97 | 1012.3 |
| 20260905105647 | 21 | 303 | 0.0 | 0.0 | 0.00 | 0.00 | 0.00 | 97 | 1012.2 |
| 20260905105145 | 21 | 304 | 0.0 | 0.0 | 0.00 | 0.00 | 0.00 | 97 | 1012.2 |
| 20260905104640 | 21 | 304 | 0.0 | 1.6 | 0.00 | 0.00 | 0.00 | 97 | 1012.0 |
| 20260905104136 | 21 | 304 | 0.0 | 0.0 | 0.00 | 0.00 | 0.00 | 97 | 1012.0 |
| 20260905103631 | 21 | 304 | 0.0 | 0.0 | 0.00 | 0.00 | 0.00 | 97 | 1011.8 |
| 20260905103127 | 21 | 304 | 0.0 | 0.0 | 0.00 | 0.00 | 0.00 | 97 | 1011.9 |
| 20260905102623 | 21 | 304 | 0.0 | 0.0 | 0.00 | 0.00 | 0.00 | 97 | 1011.9 |
| 20260905102119 | 21 | 303 | 0.0 | 0.0 | 0.00 | 0.00 | 0.00 | 97 | 1012.0 |
| 20260905101617 | 21 | 303 | 0.0 | 0.0 | 0.00 | 0.00 | 0.00 | 97 | 1011.9 |
| 20260905101116 | 21 | 303 | 0.0 | 0.0 | 0.00 | 0.00 | 0.00 | 97 | 1011.7 |
| 20260905100613 | 21 | 304 | 0.0 | 0.0 | 0.00 | 0.00 | 0.00 | 97 | 1011.7 |
| 20260905100108 | 21 | 304 | 0.0 | 0.0 | 0.00 | 0.00 | 0.00 | 97 | 1011.8 |
| 20260905095606 | 21 | 304 | 0.0 | 0.0 | 0.00 | 0.00 | 0.00 | 97 | 1011.6 |
| 20260905095102 | 21 | 304 | 0.0 | 0.0 | 0.00 | 0.00 | 0.00 | 97 | 1011.7 |
| 20260905094557 | 21 | 303 | 0.0 | 0.0 | 0.00 | 0.00 | 0.00 | 97 | 1011.7 |
| 20260905094057 | 21 | 303 | 0.0 | 0.0 | 0.00 | 0.00 | 0.00 | 96 | 1011.5 |
| 20260905093556 | 21 | 303 | 0.0 | 0.0 | 0.00 | 0.00 | 0.00 | 97 | 1011.7 |
| 20260905093053 | 21 | 304 | 0.0 | 0.0 | 0.00 | 0.00 | 0.00 | 96 | 1011.8 |
| 20260905092552 | 21 | 304 | 0.0 | 0.0 | 0.00 | 0.00 | 0.00 | 96 | 1011.5 |
| 20260905092049 | 22 | 303 | 0.0 | 0.0 | 0.00 | 0.00 | 0.00 | 96 | 1011.6 |
| 20260905091547 | 21 | 304 | 0.0 | 0.0 | 0.00 | 0.00 | 0.00 | 96 | 1011.4 |
| 20260905091043 | 21 | 303 | 0.0 | 0.0 | 0.00 | 0.00 | 0.00 | 96 | 1011.4 |
| 20260905090542 | 21 | 303 | 0.0 | 0.0 | 0.00 | 0.00 | 0.00 | 96 | 1011.4 |
| 20260905090038 | 21 | 303 | 0.0 | 0.0 | 0.00 | 0.00 | 0.00 | 96 | 1011.6 |
| 20260905085536 | 21 | 304 | 0.0 | 0.0 | 0.00 | 0.00 | 0.00 | 96 | 1011.7 |
| 20260905085032 | 21 | 303 | 0.0 | 0.0 | 0.00 | 0.00 | 0.00 | 96 | 1011.4 |
| 20260905084532 | 22 | 304 | 0.0 | 0.0 | 0.00 | 0.00 | 0.00 | 96 | 1011.6 |
| 20260905084027 | 21 | 304 | 0.0 | 0.0 | 0.00 | 0.00 | 0.00 | 96 | 1011.6 |
| 20260905083521 | 21 | 304 | 0.0 | 0.0 | 0.00 | 0.00 | 0.00 | 96 | 1011.5 |
| 20260905083018 | 21 | 303 | 0.0 | 0.0 | 0.00 | 0.00 | 0.00 | 96 | 1011.5 |
| 20260905082513 | 22 | 303 | 0.0 | 0.0 | 0.00 | 0.00 | 0.00 | 96 | 1011.6 |
| 20260905082009 | 22 | 304 | 0.0 | 0.0 | 0.00 | 0.00 | 0.00 | 96 | 1011.6 |
| 20260905081509 | 22 | 304 | 0.0 | 0.0 | 0.00 | 0.00 | 0.00 | 96 | 1011.8 |
| 20260905081009 | 22 | 304 | 0.0 | 0.0 | 0.00 | 0.00 | 0.00 | 96 | 1011.8 |
| 20260905080503 | 22 | 304 | 0.0 | 0.0 | 0.00 | 0.00 | 0.00 | 96 | 1011.8 |
| 20260905080003 | 22 | 304 | 0.0 | 0.0 | 0.00 | 0.00 | 0.00 | 96 | 1011.8 |
| 20260905075457 | 22 | 304 | 0.0 | 0.0 | 0.00 | 0.00 | 0.00 | 96 | 1011.6 |
| 20260905074955 | 22 | 304 | 0.0 | 0.0 | 0.00 | 0.00 | 0.00 | 96 | 1011.9 |
| 20260905074452 | 22 | 304 | 0.0 | 0.0 | 0.00 | 0.00 | 0.00 | 95 | 1012.0 |
| 20260905073947 | 22 | 299 | 0.0 | 0.0 | 0.00 | 0.00 | 0.00 | 95 | 1011.8 |
| 20260905073442 | 22 | 296 | 0.0 | 0.0 | 0.00 | 0.00 | 0.00 | 95 | 1011.7 |
| 20260905072937 | 22 | 296 | 0.0 | 0.0 | 0.00 | 0.00 | 0.00 | 95 | 1011.7 |
| 20260905072432 | 22 | 296 | 0.0 | 0.0 | 0.00 | 0.00 | 0.00 | 95 | 1011.8 |
| 20260905071928 | 22 | 296 | 0.0 | 0.0 | 0.00 | 0.00 | 0.00 | 95 | 1011.8 |
| 20260905071425 | 22 | 295 | 0.0 | 0.0 | 0.00 | 0.00 | 0.00 | 95 | 1011.7 |
| 20260905070924 | 22 | 299 | 0.0 | 0.0 | 0.00 | 0.00 | 0.00 | 95 | 1011.8 |
| 20260905070421 | 22 | 316 | 1.6 | 1.6 | 0.00 | 0.00 | 0.00 | 95 | 1012.0 |
| 20260905065920 | 22 | 303 | 0.0 | 0.0 | 0.00 | 0.00 | 0.00 | 95 | 1011.9 |
| 20260905065418 | 22 | 303 | 0.0 | 0.0 | 0.00 | 0.00 | 0.00 | 95 | 1011.7 |
| 20260905064914 | 22 | 303 | 0.0 | 0.0 | 0.00 | 0.00 | 0.00 | 95 | 1011.8 |
| 20260905064409 | 22 | 303 | 0.0 | 0.0 | 0.00 | 0.00 | 0.00 | 95 | 1012.0 |
| 20260905063908 | 22 | 303 | 0.0 | 0.0 | 0.00 | 0.00 | 0.00 | 95 | 1011.8 |
| 20260905063403 | 22 | 303 | 0.0 | 0.0 | 0.00 | 0.00 | 0.00 | 95 | 1011.8 |
| 20260905062900 | 22 | 303 | 0.0 | 0.0 | 0.00 | 0.00 | 0.00 | 95 | 1011.9 |
| 20260905062354 | 22 | 303 | 0.0 | 0.0 | 0.00 | 0.00 | 0.00 | 95 | 1011.9 |
| 20260905061849 | 22 | 303 | 0.0 | 0.0 | 0.00 | 0.00 | 0.00 | 95 | 1011.9 |
| 20260905061348 | 22 | 303 | 0.0 | 0.0 | 0.00 | 0.00 | 0.00 | 94 | 1012.0 |
| 20260905060843 | 22 | 303 | 0.0 | 0.0 | 0.00 | 0.00 | 0.00 | 94 | 1012.1 |
| 20260905060340 | 22 | 303 | 0.0 | 0.0 | 0.00 | 0.00 | 0.00 | 94 | 1012.0 |
| 20260905055839 | 22 | 303 | 0.0 | 0.0 | 0.00 | 0.00 | 0.00 | 94 | 1011.8 |
| 20260905055334 | 22 | 303 | 0.0 | 0.0 | 0.00 | 0.00 | 0.00 | 94 | 1011.8 |
| 20260905054833 | 22 | 303 | 0.0 | 0.0 | 0.00 | 0.00 | 0.00 | 94 | 1011.8 |
| 20260905054330 | 23 | 303 | 0.0 | 0.0 | 0.00 | 0.00 | 0.00 | 94 | 1012.0 |
| 20260905053829 | 23 | 302 | 0.0 | 0.0 | 0.00 | 0.00 | 0.00 | 94 | 1011.9 |
| 20260905053325 | 22 | 302 | 0.0 | 0.0 | 0.00 | 0.00 | 0.00 | 94 | 1011.8 |
| 20260905052825 | 23 | 301 | 0.0 | 0.0 | 0.00 | 0.00 | 0.00 | 94 | 1011.9 |
| 20260905052325 | 23 | 301 | 0.0 | 0.0 | 0.00 | 0.00 | 0.00 | 93 | 1011.9 |
| 20260905051824 | 23 | 311 | 0.0 | 0.0 | 0.00 | 0.00 | 0.00 | 93 | 1011.8 |
| 20260905051320 | 23 | 312 | 0.0 | 0.0 | 0.00 | 0.00 | 0.00 | 94 | 1012.1 |
| 20260905050817 | 23 | 311 | 0.0 | 0.0 | 0.00 | 0.00 | 0.00 | 94 | 1011.8 |
| 20260905050313 | 23 | 311 | 0.0 | 0.0 | 0.00 | 0.00 | 0.00 | 94 | 1011.9 |
| 20260905045808 | 23 | 311 | 0.0 | 0.0 | 0.00 | 0.00 | 0.00 | 94 | 1011.9 |
| 20260905045305 | 23 | 311 | 0.0 | 0.0 | 0.00 | 0.00 | 0.00 | 93 | 1012.1 |
| 20260905044759 | 23 | 311 | 0.0 | 0.0 | 0.00 | 0.00 | 0.00 | 93 | 1012.1 |
| 20260905044254 | 23 | 311 | 0.0 | 0.0 | 0.00 | 0.00 | 0.00 | 93 | 1012.0 |
| 20260905043752 | 23 | 311 | 0.0 | 0.0 | 0.00 | 0.00 | 0.00 | 92 | 1012.3 |
| 20260905043247 | 23 | 311 | 0.0 | 0.0 | 0.00 | 0.00 | 0.00 | 92 | 1012.2 |
| 20260905042742 | 23 | 311 | 0.0 | 0.0 | 0.00 | 0.00 | 0.00 | 92 | 1012.1 |
| 20260905042241 | 23 | 311 | 0.0 | 0.0 | 0.00 | 0.00 | 0.00 | 91 | 1012.1 |
| 20260905041737 | 23 | 313 | 0.0 | 1.6 | 0.00 | 0.00 | 0.00 | 91 | 1012.3 |
| 20260905041232 | 23 | 312 | 1.6 | 1.6 | 0.00 | 0.00 | 0.00 | 92 | 1012.1 |
| 20260905040727 | 23 | 311 | 0.0 | 0.0 | 0.00 | 0.00 | 0.00 | 92 | 1012.3 |
| 20260905040226 | 23 | 312 | 0.0 | 0.0 | 0.00 | 0.00 | 0.00 | 92 | 1012.2 |